Time,TemperatureF,DewpointF,PressureIn,WindDirection,WindDirectionDegrees,WindSpeedMPH,WindSpeedGustMPH,Humidity,HourlyPrecipIn,Conditions,Clouds,dailyrainin,SoftwareType,DateUTC
2013-06-03 00:03:00,58.0,52.0,29.92,NW,313,4.0,11.0,80,0.00,,,0.47,,2013-06-03 04:03:00,
2013-06-03 00:13:00,58.0,52.0,29.92,NW,313,4.0,11.0,80,0.00,,,0.47,,2013-06-03 04:13:00,
2013-06-03 00:23:00,58.0,51.0,29.93,NNW,330,2.0,14.0,77,0.00,,,0.47,,2013-06-03 04:23:00,
2013-06-03 00:33:00,57.0,50.0,29.93,WNW,294,5.0,13.0,76,0.00,,,0.47,,2013-06-03 04:33:00,
2013-06-03 00:42:00,57.0,50.0,29.93,WNW,294,5.0,13.0,76,0.00,,,0.47,,2013-06-03 04:42:00,
2013-06-03 00:53:00,57.0,50.0,29.93,NW,312,4.0,12.0,76,0.00,,,0.44,,2013-06-03 04:53:00,
2013-06-03 01:02:00,56.0,49.0,29.94,NW,317,4.0,8.0,77,0.00,,,0.44,,2013-06-03 05:02:00,
2013-06-03 01:12:00,56.0,49.0,29.94,NW,317,4.0,8.0,77,0.00,,,0.44,,2013-06-03 05:12:00,
2013-06-03 01:22:00,56.0,49.0,29.95,NW,304,2.0,7.0,78,0.00,,,0.44,,2013-06-03 05:22:00,
2013-06-03 01:32:00,55.0,49.0,29.95,NW,306,4.0,8.0,79,0.00,,,0.44,,2013-06-03 05:32:00,
2013-06-03 01:43:00,55.0,49.0,29.95,NW,306,4.0,8.0,79,0.00,,,0.44,,2013-06-03 05:43:00,
2013-06-03 01:52:00,55.0,48.0,29.95,NW,304,5.0,13.0,77,0.00,,,0.44,,2013-06-03 05:52:00,
2013-06-03 02:02:00,55.0,48.0,29.95,WNW,303,3.0,12.0,77,0.00,,,0.44,,2013-06-03 06:02:00,
2013-06-03 02:12:00,55.0,48.0,29.95,WNW,303,3.0,12.0,77,0.00,,,0.44,,2013-06-03 06:12:00,
2013-06-03 02:22:00,55.0,47.0,29.96,NW,315,5.0,11.0,74,0.00,,,0.44,,2013-06-03 06:22:00,
2013-06-03 02:32:00,54.0,46.0,29.96,WNW,283,4.0,14.0,75,0.00,,,0.44,,2013-06-03 06:32:00,
2013-06-03 02:42:00,54.0,46.0,29.96,WNW,283,4.0,14.0,75,0.00,,,0.44,,2013-06-03 06:42:00,
2013-06-03 02:53:00,54.0,46.0,29.96,NW,309,4.0,11.0,74,0.00,,,0.22,,2013-06-03 06:53:00,
2013-06-03 03:02:00,54.0,46.0,29.96,NW,310,5.0,12.0,74,0.00,,,0.22,,2013-06-03 07:02:00,
2013-06-03 03:12:00,54.0,46.0,29.96,NW,310,5.0,12.0,74,0.00,,,0.22,,2013-06-03 07:12:00,
2013-06-03 03:22:00,54.0,46.0,29.96,NW,310,0.0,4.0,75,0.00,,,0.22,,2013-06-03 07:22:00,
2013-06-03 03:32:00,53.0,45.0,29.96,NW,314,1.0,8.0,75,0.00,,,0.22,,2013-06-03 07:32:00,
2013-06-03 03:42:00,53.0,45.0,29.96,NW,314,1.0,8.0,75,0.00,,,0.22,,2013-06-03 07:42:00,
2013-06-03 03:52:00,53.0,45.0,29.96,West,263,2.0,7.0,75,0.00,,,0.22,,2013-06-03 07:52:00,
2013-06-03 04:02:00,52.0,44.0,29.97,WNW,297,4.0,12.0,74,0.00,,,0.22,,2013-06-03 08:02:00,
2013-06-03 04:12:00,52.0,44.0,29.97,WNW,297,4.0,12.0,74,0.00,,,0.22,,2013-06-03 08:12:00,
2013-06-03 04:22:00,52.0,44.0,29.96,WNW,302,2.0,11.0,75,0.00,,,0.22,,2013-06-03 08:22:00,
2013-06-03 04:32:00,52.0,44.0,29.97,WNW,289,5.0,12.0,74,0.00,,,0.22,,2013-06-03 08:32:00,
2013-06-03 04:42:00,52.0,44.0,29.97,WNW,289,5.0,12.0,74,0.00,,,0.22,,2013-06-03 08:42:00,
2013-06-03 04:52:00,52.0,44.0,29.98,West,263,3.0,11.0,74,0.00,,,0.18,,2013-06-03 08:52:00,
2013-06-03 05:02:00,52.0,44.0,29.98,WNW,296,6.0,15.0,73,0.00,,,0.18,,2013-06-03 09:02:00,
2013-06-03 05:12:00,52.0,44.0,29.98,WNW,296,6.0,15.0,73,0.00,,,0.18,,2013-06-03 09:12:00,
2013-06-03 05:22:00,51.0,43.0,29.98,NW,317,2.0,13.0,74,0.00,,,0.18,,2013-06-03 09:22:00,
2013-06-03 05:33:00,51.0,43.0,29.98,NW,325,2.0,13.0,74,0.00,,,0.04,,2013-06-03 09:33:00,
2013-06-03 05:43:00,51.0,43.0,29.98,NW,325,2.0,13.0,74,0.00,,,0.04,,2013-06-03 09:43:00,
2013-06-03 05:53:00,51.0,43.0,29.98,NW,305,5.0,11.0,73,0.00,,,0.04,,2013-06-03 09:53:00,
2013-06-03 06:03:00,51.0,43.0,29.99,WNW,294,3.0,9.0,73,0.00,,,0.04,,2013-06-03 10:03:00,
2013-06-03 06:13:00,51.0,43.0,29.99,WNW,294,3.0,9.0,73,0.00,,,0.04,,2013-06-03 10:13:00,
2013-06-03 06:22:00,51.0,43.0,29.99,WNW,290,6.0,13.0,73,0.00,,,0.04,,2013-06-03 10:22:00,
2013-06-03 06:33:00,51.0,43.0,29.99,West,263,2.0,12.0,73,0.00,,,0.02,,2013-06-03 10:33:00,
2013-06-03 06:42:00,51.0,43.0,29.99,West,263,2.0,12.0,73,0.00,,,0.02,,2013-06-03 10:42:00,
2013-06-03 06:53:00,51.0,43.0,30.00,WNW,284,4.0,10.0,73,0.00,,,0.02,,2013-06-03 10:53:00,
2013-06-03 07:02:00,51.0,43.0,30.01,WNW,294,3.0,12.0,73,0.00,,,0.02,,2013-06-03 11:02:00,
2013-06-03 07:12:00,51.0,43.0,30.01,WNW,294,3.0,12.0,73,0.00,,,0.02,,2013-06-03 11:12:00,
2013-06-03 07:22:00,51.0,43.0,30.01,West,269,3.0,9.0,73,0.00,,,0.02,,2013-06-03 11:22:00,
2013-06-03 07:32:00,52.0,44.0,30.01,WSW,240,3.0,10.0,73,0.00,,,0.01,,2013-06-03 11:32:00,
2013-06-03 07:42:00,52.0,44.0,30.01,WSW,240,3.0,10.0,73,0.00,,,0.01,,2013-06-03 11:42:00,
2013-06-03 07:52:00,52.0,43.0,30.01,West,266,3.0,9.0,71,0.00,,,0.01,,2013-06-03 11:52:00,
2013-06-03 08:02:00,52.0,43.0,30.01,WNW,290,5.0,12.0,70,0.00,,,0.01,,2013-06-03 12:02:00,
2013-06-03 08:12:00,52.0,43.0,30.01,WNW,290,5.0,12.0,70,0.00,,,0.01,,2013-06-03 12:12:00,
2013-06-03 08:22:00,53.0,44.0,30.02,WNW,291,4.0,12.0,71,0.00,,,0.01,,2013-06-03 12:22:00,
2013-06-03 08:32:00,52.0,43.0,30.02,WNW,301,5.0,11.0,71,0.00,,,0.00,,2013-06-03 12:32:00,
2013-06-03 08:42:00,52.0,43.0,30.02,WNW,301,5.0,11.0,71,0.00,,,0.00,,2013-06-03 12:42:00,
2013-06-03 08:52:00,53.0,43.0,30.02,West,271,3.0,10.0,70,0.00,,,0.00,,2013-06-03 12:52:00,
2013-06-03 09:02:00,53.0,43.0,30.02,NW,312,4.0,11.0,69,0.00,,,0.00,,2013-06-03 13:02:00,
2013-06-03 09:12:00,53.0,43.0,30.02,NW,312,4.0,11.0,69,0.00,,,0.00,,2013-06-03 13:12:00,
2013-06-03 09:22:00,53.0,43.0,30.02,WNW,296,6.0,12.0,69,0.00,,,0.00,,2013-06-03 13:22:00,
2013-06-03 09:32:00,53.0,43.0,30.03,WSW,256,3.0,13.0,69,0.00,,,0.00,,2013-06-03 13:32:00,
2013-06-03 09:43:00,53.0,43.0,30.03,WSW,256,3.0,13.0,69,0.00,,,0.00,,2013-06-03 13:43:00,
2013-06-03 09:53:00,54.0,43.0,30.03,SW,233,6.0,9.0,67,0.00,,,0.00,,2013-06-03 13:53:00,
2013-06-03 10:02:00,54.0,43.0,30.03,WNW,300,2.0,15.0,65,0.00,,,0.00,,2013-06-03 14:02:00,
2013-06-03 10:13:00,54.0,43.0,30.03,WNW,300,2.0,15.0,65,0.00,,,0.00,,2013-06-03 14:13:00,
2013-06-03 10:22:00,54.0,42.0,30.03,WSW,248,2.0,12.0,64,0.00,,,0.00,,2013-06-03 14:22:00,
2013-06-03 10:32:00,55.0,42.0,30.03,WNW,299,6.0,10.0,62,0.00,,,0.00,,2013-06-03 14:32:00,
2013-06-03 10:42:00,55.0,42.0,30.03,WNW,299,6.0,10.0,62,0.00,,,0.00,,2013-06-03 14:42:00,
2013-06-03 10:52:00,56.0,43.0,30.03,WNW,288,5.0,15.0,61,0.00,,,0.00,,2013-06-03 14:52:00,
2013-06-03 11:02:00,57.0,42.0,30.03,WSW,243,6.0,11.0,58,0.00,,,0.00,,2013-06-03 15:02:00,
2013-06-03 11:12:00,57.0,42.0,30.03,WSW,243,6.0,11.0,58,0.00,,,0.00,,2013-06-03 15:12:00,
2013-06-03 11:22:00,57.0,42.0,30.03,WSW,252,5.0,12.0,58,0.00,,,0.00,,2013-06-03 15:22:00,
2013-06-03 11:33:00,59.0,43.0,30.03,WSW,250,5.0,11.0,55,0.00,,,0.00,,2013-06-03 15:33:00,
2013-06-03 11:43:00,59.0,43.0,30.03,WSW,250,5.0,11.0,55,0.00,,,0.00,,2013-06-03 15:43:00,
2013-06-03 11:53:00,60.0,44.0,30.03,West,265,5.0,11.0,55,0.00,,,0.00,,2013-06-03 15:53:00,
2013-06-03 12:03:00,61.0,44.0,30.03,SW,231,3.0,15.0,54,0.00,,,0.00,,2013-06-03 16:03:00,
2013-06-03 12:13:00,61.0,44.0,30.03,SW,231,3.0,15.0,54,0.00,,,0.00,,2013-06-03 16:13:00,
2013-06-03 12:23:00,61.0,44.0,30.03,SW,231,3.0,15.0,54,0.00,,,0.00,,2013-06-03 16:23:00,
2013-06-03 12:33:00,61.0,43.0,30.02,WNW,300,4.0,11.0,51,0.00,,,0.00,,2013-06-03 16:33:00,
2013-06-03 12:42:00,62.0,44.0,30.02,West,264,2.0,15.0,51,0.00,,,0.00,,2013-06-03 16:42:00,
2013-06-03 12:53:00,62.0,44.0,30.02,West,264,2.0,15.0,51,0.00,,,0.00,,2013-06-03 16:53:00,
2013-06-03 13:02:00,62.0,44.0,30.02,West,264,2.0,15.0,51,0.00,,,0.00,,2013-06-03 17:02:00,
2013-06-03 13:12:00,62.0,44.0,30.02,West,264,2.0,15.0,51,0.00,,,0.00,,2013-06-03 17:12:00,
2013-06-03 13:22:00,63.0,43.0,30.02,NNW,332,1.0,12.0,48,0.00,,,0.00,,2013-06-03 17:22:00,
2013-06-03 13:33:00,63.0,43.0,30.02,NNW,332,1.0,12.0,48,0.00,,,0.00,,2013-06-03 17:33:00,
2013-06-03 13:42:00,63.0,43.0,30.02,NNW,332,1.0,12.0,48,0.00,,,0.00,,2013-06-03 17:42:00,
2013-06-03 13:52:00,63.0,42.0,30.02,WSW,243,5.0,11.0,47,0.00,,,0.00,,2013-06-03 17:52:00,
2013-06-03 14:02:00,64.0,47.0,30.02,NNE,33,1.0,6.0,53,0.00,,,0.00,,2013-06-03 18:02:00,
2013-06-03 14:12:00,64.0,47.0,30.02,NNE,33,1.0,6.0,53,0.00,,,0.00,,2013-06-03 18:12:00,
2013-06-03 14:22:00,64.0,47.0,30.02,NNE,33,1.0,6.0,53,0.00,,,0.00,,2013-06-03 18:22:00,
2013-06-03 14:32:00,61.0,47.0,30.02,North,350,1.0,4.0,60,0.00,,,0.00,,2013-06-03 18:32:00,
2013-06-03 14:43:00,61.0,47.0,30.02,North,350,1.0,4.0,60,0.00,,,0.00,,2013-06-03 18:43:00,
2013-06-03 14:52:00,59.0,47.0,30.02,North,5,1.0,9.0,64,0.00,,,0.00,,2013-06-03 18:52:00,
2013-06-03 15:03:00,60.0,47.0,30.01,NW,322,2.0,7.0,62,0.00,,,0.00,,2013-06-03 19:03:00,
2013-06-03 15:12:00,60.0,47.0,30.01,NW,322,2.0,7.0,62,0.00,,,0.00,,2013-06-03 19:12:00,
2013-06-03 15:23:00,60.0,46.0,30.02,North,5,1.0,8.0,60,0.00,,,0.00,,2013-06-03 19:23:00,
2013-06-03 15:33:00,61.0,47.0,30.01,NNW,333,0.0,6.0,61,0.00,,,0.00,,2013-06-03 19:33:00,
2013-06-03 15:42:00,61.0,47.0,30.01,NNW,333,0.0,6.0,61,0.00,,,0.00,,2013-06-03 19:42:00,
2013-06-03 15:52:00,62.0,47.0,30.01,WNW,290,6.0,12.0,57,0.00,,,0.00,,2013-06-03 19:52:00,
2013-06-03 16:02:00,63.0,48.0,30.01,NW,310,2.0,13.0,58,0.00,,,0.00,,2013-06-03 20:02:00,
2013-06-03 16:13:00,63.0,48.0,30.01,NW,310,2.0,13.0,58,0.00,,,0.00,,2013-06-03 20:13:00,
2013-06-03 16:22:00,63.0,47.0,30.01,WNW,288,7.0,14.0,56,0.00,,,0.00,,2013-06-03 20:22:00,
2013-06-03 16:33:00,63.0,45.0,30.00,WNW,298,3.0,13.0,52,0.00,,,0.00,,2013-06-03 20:33:00,
2013-06-03 16:43:00,63.0,45.0,30.00,WNW,298,3.0,13.0,52,0.00,,,0.00,,2013-06-03 20:43:00,
2013-06-03 16:52:00,63.0,42.0,30.00,NW,313,8.0,18.0,47,0.00,,,0.00,,2013-06-03 20:52:00,
2013-06-03 17:02:00,63.0,42.0,30.01,WNW,300,7.0,15.0,46,0.00,,,0.00,,2013-06-03 21:02:00,
2013-06-03 17:12:00,63.0,42.0,30.01,WNW,300,7.0,15.0,46,0.00,,,0.00,,2013-06-03 21:12:00,
2013-06-03 17:22:00,63.0,41.0,30.01,NW,304,6.0,14.0,45,0.00,,,0.00,,2013-06-03 21:22:00,
2013-06-03 17:33:00,63.0,41.0,30.01,WSW,253,7.0,14.0,44,0.00,,,0.00,,2013-06-03 21:33:00,
2013-06-03 17:43:00,63.0,41.0,30.01,WSW,253,7.0,14.0,44,0.00,,,0.00,,2013-06-03 21:43:00,
2013-06-03 17:53:00,64.0,42.0,30.01,WNW,294,6.0,12.0,44,0.00,,,0.00,,2013-06-03 21:53:00,
2013-06-03 18:03:00,64.0,40.0,30.01,WNW,299,7.0,15.0,42,0.00,,,0.00,,2013-06-03 22:03:00,
2013-06-03 18:13:00,64.0,40.0,30.01,WNW,299,7.0,15.0,42,0.00,,,0.00,,2013-06-03 22:13:00,
2013-06-03 18:22:00,64.0,40.0,30.01,WNW,298,6.0,18.0,42,0.00,,,0.00,,2013-06-03 22:22:00,
2013-06-03 18:33:00,63.0,40.0,30.00,West,261,4.0,12.0,43,0.00,,,0.00,,2013-06-03 22:33:00,
2013-06-03 18:42:00,63.0,40.0,30.00,West,261,4.0,12.0,43,0.00,,,0.00,,2013-06-03 22:42:00,
2013-06-03 18:52:00,63.0,40.0,30.00,NNW,338,6.0,13.0,43,0.00,,,0.00,,2013-06-03 22:52:00,
2013-06-03 19:02:00,63.0,40.0,30.00,NW,305,3.0,11.0,43,0.00,,,0.00,,2013-06-03 23:02:00,
2013-06-03 19:12:00,63.0,40.0,30.00,NW,305,3.0,11.0,43,0.00,,,0.00,,2013-06-03 23:12:00,
2013-06-03 19:23:00,63.0,40.0,30.01,NW,314,5.0,11.0,43,0.00,,,0.00,,2013-06-03 23:23:00,
2013-06-03 19:32:00,63.0,41.0,30.01,WSW,252,5.0,13.0,44,0.00,,,0.00,,2013-06-03 23:32:00,
2013-06-03 19:42:00,63.0,41.0,30.01,WSW,252,5.0,13.0,44,0.00,,,0.00,,2013-06-03 23:42:00,
2013-06-03 19:52:00,63.0,40.0,30.01,WNW,300,6.0,13.0,43,0.00,,,0.00,,2013-06-03 23:52:00,
2013-06-03 20:02:00,63.0,40.0,30.01,West,261,5.0,8.0,42,0.00,,,0.00,,2013-06-04 00:02:00,
2013-06-03 20:12:00,63.0,40.0,30.01,West,261,5.0,8.0,42,0.00,,,0.00,,2013-06-04 00:12:00,
2013-06-03 20:22:00,63.0,41.0,30.02,WNW,290,4.0,12.0,44,0.00,,,0.00,,2013-06-04 00:22:00,
2013-06-03 20:32:00,62.0,40.0,30.03,WNW,295,7.0,12.0,44,0.00,,,0.00,,2013-06-04 00:32:00,
2013-06-03 20:42:00,62.0,40.0,30.03,WNW,295,7.0,12.0,44,0.00,,,0.00,,2013-06-04 00:42:00,
2013-06-03 20:52:00,61.0,40.0,30.03,NW,323,5.0,15.0,46,0.00,,,0.00,,2013-06-04 00:52:00,
2013-06-03 21:02:00,60.0,42.0,30.03,NW,308,3.0,15.0,51,0.00,,,0.00,,2013-06-04 01:02:00,
2013-06-03 21:12:00,60.0,42.0,30.03,NW,308,3.0,15.0,51,0.00,,,0.00,,2013-06-04 01:12:00,
2013-06-03 21:22:00,60.0,46.0,30.03,NW,315,6.0,15.0,59,0.00,,,0.00,,2013-06-04 01:22:00,
2013-06-03 21:32:00,59.0,46.0,30.03,West,263,5.0,11.0,62,0.00,,,0.00,,2013-06-04 01:32:00,
2013-06-03 21:42:00,59.0,46.0,30.03,West,263,5.0,11.0,62,0.00,,,0.00,,2013-06-04 01:42:00,
2013-06-03 21:52:00,59.0,46.0,30.03,West,263,5.0,11.0,62,0.00,,,0.00,,2013-06-04 01:52:00,
2013-06-03 22:03:00,58.0,46.0,30.05,WNW,299,0.0,7.0,65,0.00,,,0.00,,2013-06-04 02:03:00,
2013-06-03 22:12:00,58.0,46.0,30.05,WNW,299,0.0,7.0,65,0.00,,,0.00,,2013-06-04 02:12:00,
2013-06-03 22:22:00,57.0,45.0,30.06,WNW,294,0.0,10.0,64,0.00,,,0.00,,2013-06-04 02:22:00,
2013-06-03 22:32:00,56.0,42.0,30.07,WNW,288,2.0,8.0,59,0.00,,,0.00,,2013-06-04 02:32:00,
2013-06-03 22:42:00,56.0,42.0,30.07,WNW,288,2.0,8.0,59,0.00,,,0.00,,2013-06-04 02:42:00,
2013-06-03 22:52:00,56.0,43.0,30.07,West,275,2.0,8.0,61,0.00,,,0.00,,2013-06-04 02:52:00,
2013-06-03 23:02:00,55.0,42.0,30.07,WNW,298,2.0,5.0,62,0.00,,,0.00,,2013-06-04 03:02:00,
2013-06-03 23:12:00,55.0,42.0,30.07,WNW,298,2.0,5.0,62,0.00,,,0.00,,2013-06-04 03:12:00,
2013-06-03 23:22:00,55.0,43.0,30.07,WNW,294,1.0,5.0,63,0.00,,,0.00,,2013-06-04 03:22:00,
2013-06-03 23:33:00,55.0,44.0,30.07,West,269,1.0,7.0,66,0.00,,,0.00,,2013-06-04 03:33:00,
2013-06-03 23:43:00,55.0,44.0,30.07,West,269,1.0,7.0,66,0.00,,,0.00,,2013-06-04 03:43:00,
2013-06-03 23:53:00,54.0,45.0,30.07,West,272,4.0,8.0,72,0.00,,,0.00,,2013-06-04 03:53:00,